Theta_e
340 341 343 345 346 346 346 346 346 345 345 344 344 344 343 343 342 342 342 341 340 338 335 333 330 329 330 330 331 331 332 331 328 326 323 322 323 324 324 325 326 326 326 325 324 323 322 321 320 319 320 323
336 339 341 343 343 343 343 345 345 345 345 344 344 343 341 339 340 341 341 341 339 337 335 334 331 329 329 328 329 329 330 329 327 324 323 322 322 322 322 323 323 324 324 323 322 321 320 319 318 318 319 321
338 333 337 338 339 340 342 342 343 343 340 340 340 338 336 335 335 336 336 338 337 335 334 333 332 330 328 326 326 327 328 329 328 327 325 324 324 323 322 322 322 323 322 321 320 319 318 316 316 316 319 321
341 332 330 333 335 336 338 339 338 337 336 335 333 332 330 328 331 330 333 327 333 332 332 330 329 331 329 328 327 325 325 327 327 327 325 324 323 323 322 322 321 321 321 319 318 316 315 314 314 317 319 321
340 336 328 329 329 330 333 334 333 333 327 326 325 327 326 328 335 335 336 337 336 327 334 325 325 330 329 327 326 324 323 323 323 323 322 321 319 318 316 315 316 316 317 316 315 314 312 311 314 316 317 319
339 337 334 340 339 337 333 328 326 331 335 330 334 324 332 336 334 335 335 333 331 334 332 329 323 326 330 328 326 325 323 323 322 322 321 319 318 316 312 309 307 308 310 311 311 310 309 310 312 313 315 316
339 338 338 340 339 336 329 331 333 334 333 335 334 336 337 335 336 336 334 333 332 332 324 328 323 326 329 329 326 324 323 322 322 321 320 318 316 313 310 308 307 307 307 306 306 306 307 307 308 309 311 313
338 338 338 339 339 336 336 335 335 335 334 333 334 335 336 336 335 334 333 327 324 326 331 327 322 322 322 322 320 319 321 321 320 319 318 315 312 310 308 308 307 306 306 305 305 304 304 304 304 305 307 308
335 338 338 338 338 337 336 335 335 335 334 333 334 334 335 335 335 334 332 331 332 332 332 330 330 328 325 323 319 315 316 314 313 312 312 311 310 309 308 307 306 306 304 303 303 301 301 301 301 301 302 304
328 335 338 337 337 336 335 336 335 334 334 334 334 334 334 334 333 332 331 331 332 331 331 330 329 327 324 322 319 317 317 317 315 313 311 310 309 307 307 305 305 304 303 301 300 299 299 299 298 299 299 300
325 331 337 337 337 336 335 336 334 333 334 334 334 333 332 333 332 332 331 330 332 331 331 329 329 327 324 322 320 318 317 317 315 313 311 310 308 306 305 304 304 302 301 300 299 298 298 297 297 297 297 297
327 329 334 336 336 336 333 333 334 334 334 335 333 332 332 332 332 331 330 330 331 332 331 329 329 327 326 324 322 320 318 317 316 313 311 309 307 305 305 303 302 301 300 299 299 298 297 297 296 295 295 295
327 330 332 335 336 336 331 335 334 334 333 334 333 332 332 332 332 331 330 330 330 332 330 329 328 327 326 325 323 320 318 317 315 312 310 308 306 305 304 302 301 300 300 298 298 297 296 295 295 294 294 294
326 329 330 332 334 334 328 334 334 332 332 331 332 331 332 332 333 332 330 330 329 330 329 329 328 327 326 324 323 321 318 318 315 312 310 308 306 304 303 302 301 299 298 297 296 296 295 294 293 294 293 293
326 328 330 331 332 331 331 331 330 331 332 331 331 330 330 331 332 331 331 330 329 328 329 328 327 327 326 324 324 321 319 318 315 312 310 307 304 303 302 301 300 298 297 296 295 295 294 293 294 293 293 293
323 327 329 329 328 328 329 329 330 330 328 326 329 329 328 331 331 330 329 329 328 327 327 326 325 325 324 323 324 321 319 316 314 312 310 307 305 304 303 301 299 298 296 295 294 294 293 293 293 292 293 292
323 327 326 326 327 325 325 326 328 329 327 327 327 328 328 330 330 329 328 328 327 323 325 324 322 323 321 321 320 320 318 316 315 312 309 306 305 303 301 299 297 297 295 293 293 292 292 292 291 292 292 292
323 325 324 323 323 322 322 324 324 324 324 324 326 327 327 329 329 328 329 327 324 324 323 322 321 320 319 319 319 319 317 315 313 311 307 304 302 302 300 297 296 294 292 292 292 292 292 292 291 291 291 290
322 322 321 321 319 319 320 320 321 321 321 323 323 324 324 324 324 326 327 327 324 321 320 320 319 318 317 317 317 316 315 314 313 310 306 303 301 301 299 296 295 293 292 292 292 292 292 292 292 292 291 291
320 319 318 317 316 316 315 317 317 318 320 319 320 320 320 321 320 321 323 325 324 321 319 317 315 314 315 315 315 314 314 313 310 308 306 303 301 298 296 294 293 293 292 292 292 293 292 292 292 291 291 291
313 314 313 313 314 315 314 313 313 314 315 317 317 317 318 319 319 320 320 319 320 323 319 317 314 313 313 313 313 314 313 311 310 306 304 302 301 298 295 294 293 293 292 292 291 291 290 290 290 290 290 290
310 310 310 309 310 310 310 310 310 311 313 314 316 315 315 316 317 318 317 315 315 315 316 314 313 313 311 311 311 311 311 309 308 306 303 300 299 297 295 293 292 292 291 291 290 290 289 289 289 289 289 289
307 306 306 307 308 308 308 307 308 308 310 311 311 311 311 313 315 314 313 313 312 311 311 311 310 310 310 309 307 307 306 306 305 303 301 298 297 296 295 294 293 292 291 290 290 289 288 289 288 289 288 288
307 307 306 306 305 305 304 305 305 306 306 308 310 309 309 310 312 312 311 311 311 310 308 308 307 306 306 306 305 304 304 303 303 301 298 296 295 294 294 293 292 292 290 290 289 289 289 289 289 288 288 287
308 307 305 307 309 306 304 303 304 303 304 305 307 307 308 307 308 309 309 309 308 307 305 305 304 305 304 306 306 305 304 304 302 300 298 296 295 293 292 291 292 292 292 289 288 289 289 289 289 289 288 287
309 309 310 308 306 303 302 301 302 301 301 301 302 304 304 305 306 307 306 307 306 304 303 302 302 302 301 303 304 304 303 303 300 299 297 296 293 294 292 290 292 292 293 290 288 287 287 287 290 291 289 287
309 306 304 303 301 303 298 296 296 298 297 297 298 298 300 303 305 305 303 305 304 303 302 302 301 300 300 301 299 300 300 300 299 298 296 296 293 291 292 291 291 291 293 290 290 290 287 284 285 287 287 288
303 299 298 298 298 296 296 295 294 295 295 296 296 296 297 299 302 303 301 301 302 301 301 301 299 298 297 297 300 301 300 299 298 297 296 296 294 293 289 291 290 290 290 290 289 288 290 286 287 284 284 285
298 297 295 295 295 296 295 295 295 295 294 294 295 295 296 296 298 299 298 298 299 299 299 299 298 297 296 297 299 301 300 299 298 298 297 296 294 294 292 290 289 289 289 292 290 292 286 286 286 288 286 285
298 298 296 296 298 299 298 296 296 298 299 295 297 297 293 293 295 296 296 296 297 298 296 296 295 295 295 296 297 300 300 299 298 297 296 296 296 295 294 293 289 288 287 287 288 288 291 294 294 287 285 285
299 298 299 303 304 304 303 301 299 299 300 300 294 292 292 292 293 294 295 295 294 295 294 294 293 293 295 295 296 297 297 296 296 296 296 296 297 296 295 294 292 289 287 286 286 286 287 287 286 290 285 283
Wind_Speed
7 8 4 6 6 8 8 10 10 10 10 10 11 11 11 11 11 11 13 13 14 15 15 16 16 16 16 17 17 17 18 18 19 19 19 19 19 19 19 19 19 18 18 18 17 17 17 16 15 13 10 7
6 7 6 7 7 6 7 8 9 9 9 9 9 10 9 9 10 11 11 12 14 15 15 16 16 16 16 16 17 17 18 18 19 19 19 19 19 19 19 19 19 19 18 18 17 17 17 16 15 13 9 8
5 6 6 6 6 7 7 8 9 9 9 9 9 9 9 9 10 11 10 11 12 12 12 13 14 16 16 16 17 17 17 18 18 19 19 19 19 19 20 20 19 19 18 17 17 17 16 15 13 11 8 8
5 5 6 6 6 5 8 8 9 9 9 9 10 10 10 10 10 9 9 11 10 11 12 11 11 14 15 16 16 17 17 18 18 18 19 19 19 19 19 19 19 18 18 18 17 17 15 14 11 8 7 8
4 4 7 6 7 6 6 8 9 9 10 9 9 10 9 10 9 8 7 7 7 9 8 10 12 13 14 15 15 17 18 18 19 19 19 19 19 19 19 18 19 19 18 18 18 17 14 11 8 7 7 7
4 4 5 7 6 5 5 6 8 7 7 7 7 8 7 7 7 7 7 6 7 6 9 10 12 12 13 14 13 15 18 18 19 19 19 19 18 18 17 15 9 10 14 18 17 15 12 9 7 8 8 8
5 5 5 6 6 5 6 6 6 6 7 6 8 7 7 6 6 7 6 6 6 6 10 10 11 12 12 12 13 15 17 18 19 19 18 18 17 16 15 9 7 7 7 8 12 11 9 7 7 7 8 8
5 5 5 5 6 5 5 6 6 6 7 7 7 7 7 6 7 7 7 7 10 10 7 8 11 13 13 13 13 14 12 15 17 19 18 16 14 10 7 7 7 7 7 7 7 7 7 7 8 8 7 7
4 6 5 4 5 5 5 6 6 6 6 7 7 7 6 7 7 7 7 7 6 6 6 7 6 6 6 5 7 11 7 7 8 9 8 7 8 7 7 8 7 7 7 7 7 8 7 8 8 8 7 7
1 4 5 4 4 6 5 5 6 6 6 6 7 7 6 7 7 7 7 7 7 7 7 7 7 5 6 6 6 7 7 6 6 7 7 7 7 7 7 8 7 7 7 7 7 8 8 7 7 7 7 7
0 3 4 5 4 4 5 6 6 6 6 6 6 7 7 7 7 7 7 7 7 7 7 6 7 6 6 7 6 5 7 7 6 7 7 7 8 7 8 9 8 8 9 8 8 8 8 8 8 7 7 7
2 3 2 4 5 5 5 4 7 6 6 7 7 7 7 6 7 7 6 6 8 8 7 7 7 6 6 6 6 5 7 8 7 8 7 7 8 9 8 9 8 8 8 8 8 9 9 8 8 7 7 7
2 2 3 4 5 6 6 6 5 5 5 7 6 6 7 7 8 6 5 6 6 7 8 8 7 7 6 6 6 6 6 8 8 8 8 7 8 7 8 8 8 8 8 8 8 8 9 8 8 8 8 7
4 3 4 5 5 4 6 7 7 6 5 3 7 6 7 7 7 7 6 4 4 6 7 8 8 8 7 7 6 6 7 5 7 9 8 8 8 8 8 8 8 8 8 9 8 8 9 8 8 7 7 7
7 5 5 5 5 5 5 5 6 5 5 6 5 7 6 7 5 6 7 6 5 5 7 7 7 8 8 7 6 7 7 6 7 8 8 8 7 7 8 8 7 8 8 8 8 7 9 7 7 7 6 7
6 7 5 5 4 5 5 5 6 5 5 4 5 6 6 7 7 6 5 7 7 6 5 7 6 6 6 8 6 6 7 8 7 8 9 9 8 8 9 9 8 7 8 9 8 7 9 7 7 6 6 7
5 6 5 5 6 4 5 5 5 6 5 4 5 6 5 6 8 6 6 5 7 7 6 7 6 6 7 6 7 8 8 9 9 8 9 8 7 7 8 10 9 7 8 9 8 7 7 6 7 6 6 6
6 6 5 5 4 5 5 4 4 5 5 5 4 5 6 6 7 7 7 7 6 5 8 7 7 7 7 7 8 7 9 7 8 7 9 8 7 7 8 10 9 8 9 8 7 7 6 6 6 5 7 6
8 6 6 6 4 5 4 4 4 4 5 5 5 5 5 5 6 6 8 9 7 5 4 8 8 8 7 8 10 8 7 9 7 8 8 9 8 7 8 9 8 9 9 8 8 6 5 6 5 6 7 6
7 6 6 4 5 6 4 3 5 4 5 5 5 5 5 5 5 6 6 7 8 7 7 6 6 7 8 9 9 9 8 9 8 9 8 7 9 11 9 10 10 8 9 8 8 6 5 5 5 6 5 6
5 5 5 4 3 9 6 2 5 3 3 5 5 5 6 5 6 7 7 5 5 8 9 7 7 6 8 8 9 8 10 8 8 10 9 8 4 8 11 10 12 9 7 7 7 6 6 5 5 6 5 5
5 4 6 3 3 6 7 2 3 4 1 4 5 6 6 5 6 7 6 6 4 5 7 8 8 8 9 8 9 7 9 9 7 8 9 9 5 5 10 10 11 10 7 6 7 6 6 5 5 5 5 5
5 5 5 3 3 5 7 3 3 3 2 3 4 4 6 6 6 6 7 5 7 5 7 9 8 9 10 9 7 9 10 9 9 8 8 11 8 5 5 9 9 10 8 8 7 6 6 5 6 5 5 4
7 6 7 7 4 5 5 3 4 3 1 3 6 5 4 4 5 5 8 5 7 7 7 7 7 8 8 7 8 9 11 10 10 12 12 10 11 11 8 6 8 9 10 9 8 7 6 6 5 7 5 6
8 8 6 4 6 6 4 3 4 4 1 2 4 6 6 6 5 6 7 6 6 8 7 7 7 9 6 7 8 10 11 11 11 11 10 9 8 14 12 8 6 5 9 10 7 6 7 6 5 5 5 6
8 7 7 6 5 4 5 5 6 4 2 3 3 5 5 6 8 7 7 5 6 8 9 8 7 7 7 10 8 9 11 11 11 11 9 10 8 2 11 8 7 6 6 4 7 8 5 5 4 3 4 5
7 5 3 3 4 6 5 2 3 3 2 2 3 3 2 3 6 10 8 5 7 8 8 8 10 9 7 8 9 9 10 10 9 8 11 10 11 7 2 6 1 2 3 5 4 5 7 3 3 1 2 2
5 6 7 7 6 6 3 3 4 3 2 3 3 3 2 1 3 8 9 7 7 7 7 10 9 8 8 8 8 12 12 9 9 9 8 9 11 11 10 5 3 2 1 5 11 5 1 3 2 3 4 3
7 7 7 6 6 5 7 6 4 4 2 1 1 2 3 3 3 6 8 6 6 8 8 9 8 9 8 9 7 9 9 9 10 10 8 11 11 14 12 8 3 1 0 5 4 5 6 3 2 3 3 4
7 7 8 8 9 9 6 6 7 8 10 6 7 7 2 2 4 6 6 4 4 7 7 9 8 8 9 8 8 8 9 10 9 9 10 10 11 11 11 11 8 4 2 2 1 1 1 2 2 6 3 3
8 8 9 14 12 10 11 10 7 6 6 7 3 4 4 2 3 5 6 4 3 4 6 7 7 7 8 8 8 8 10 10 10 9 9 8 9 8 8 8 9 9 5 3 2 2 1 2 2 7 8 4
Wind_Direction
118 116 138 134 139 146 144 139 138 133 126 123 126 126 122 117 114 111 108 101 94 91 90 87 86 86 86 86 86 85 85 85 85 84 84 83 81 80 80 78 78 76 72 69 65 63 59 56 52 45 42 49
114 125 135 132 140 141 139 138 136 133 131 129 124 121 118 114 113 113 110 105 100 98 94 92 90 89 89 89 89 89 89 90 90 89 86 84 82 81 80 78 77 75 73 70 68 64 61 57 53 49 41 47
135 124 135 127 125 136 131 133 136 138 134 126 121 119 114 104 107 115 109 96 97 98 96 93 92 92 92 92 92 92 92 91 91 89 87 85 83 81 79 78 77 75 72 70 67 64 60 57 54 44 45 43
142 138 136 120 113 126 139 137 126 125 124 122 121 115 110 103 103 106 97 96 98 95 93 93 95 93 92 92 92 93 93 93 92 90 87 83 80 77 75 74 72 70 69 67 63 61 58 55 48 49 48 44
136 151 141 135 114 101 121 132 126 120 121 120 119 119 113 110 112 116 110 98 101 97 94 92 91 91 90 89 90 92 93 92 90 88 86 83 79 76 73 69 67 64 63 61 60 57 53 46 48 46 45 41
135 162 164 157 150 136 131 127 128 130 133 130 128 120 124 123 122 124 120 114 108 101 99 94 96 97 95 90 91 94 96 94 92 90 88 84 81 78 74 69 66 62 60 57 57 55 45 52 46 39 40 39
152 170 174 167 155 141 140 136 140 135 131 138 136 136 129 130 130 130 129 128 123 115 106 100 94 91 92 93 93 96 97 96 94 92 90 88 85 82 78 72 69 67 62 59 50 48 46 50 45 40 38 39
167 169 171 169 154 153 154 150 153 152 141 142 143 139 138 137 135 134 134 125 120 116 109 101 97 95 91 89 86 87 90 92 94 96 91 88 86 81 73 76 74 72 66 62 57 54 51 49 42 41 35 36
203 167 164 160 162 156 163 154 159 154 145 145 147 144 142 143 139 138 140 141 135 122 119 122 120 111 104 100 98 101 92 98 101 99 97 93 83 79 78 77 71 74 72 66 62 58 53 51 45 42 37 34
259 210 154 163 178 150 163 162 156 154 149 150 153 151 149 144 144 146 147 150 142 132 133 131 129 119 118 113 111 113 105 99 100 98 97 94 92 88 82 77 75 68 71 70 65 61 55 52 50 49 41 36
62 247 164 165 168 155 171 172 161 163 153 154 155 151 156 154 151 153 156 158 151 141 141 137 135 131 128 126 124 126 119 112 105 101 98 93 91 92 90 85 79 75 70 68 74 68 60 55 55 51 46 40
298 288 228 194 168 188 173 175 163 176 163 158 170 158 166 157 155 158 164 166 162 145 151 145 138 136 129 126 129 130 120 120 118 107 99 97 94 93 89 91 81 79 75 68 67 71 63 59 57 53 52 49
222 252 260 231 199 195 180 183 170 175 166 164 168 166 166 160 158 162 171 167 168 157 154 146 141 140 135 132 131 129 122 127 123 112 112 105 100 98 96 92 86 81 75 72 66 72 69 63 59 54 54 51
239 233 238 228 213 185 184 192 172 166 165 196 164 170 173 167 165 169 169 164 156 161 157 149 144 141 141 136 142 135 131 132 123 121 115 109 109 110 99 93 90 87 80 74 69 69 73 64 61 60 58 51
234 223 230 229 206 168 181 171 149 168 169 176 184 161 182 163 158 164 167 169 162 159 161 150 149 146 144 143 150 144 132 131 119 117 114 116 120 115 105 99 99 94 90 80 71 68 71 67 66 63 60 61
235 226 210 208 187 177 164 165 162 169 159 191 172 162 173 172 160 158 167 162 162 156 158 146 150 140 144 146 138 133 129 121 114 111 109 108 110 108 105 101 92 88 93 84 75 70 73 67 68 64 63 64
229 218 188 189 185 159 150 169 172 167 166 177 163 155 170 174 157 153 163 162 164 153 159 136 139 138 137 139 132 130 121 122 117 117 111 109 111 103 106 101 96 89 83 89 82 74 73 75 70 64 67 63
216 199 175 169 176 134 137 152 166 153 144 152 159 154 163 166 160 160 163 161 147 162 153 140 140 140 133 137 122 125 129 127 123 118 117 119 117 112 106 102 106 102 95 91 89 81 77 74 74 73 68 61
208 173 166 162 162 134 134 128 143 150 142 149 153 148 147 151 154 158 159 164 149 133 122 139 145 138 133 137 129 128 128 126 121 118 119 131 118 116 106 105 105 105 103 102 95 87 82 79 78 71 71 63
179 159 154 160 184 129 102 144 133 145 152 137 140 137 134 144 143 137 146 161 155 142 143 127 121 128 132 136 133 130 129 129 133 124 121 127 131 121 113 114 106 101 100 96 93 87 77 75 68 73 69 64
103 114 114 131 222 126 111 158 133 88 164 142 143 131 137 150 145 142 138 136 156 153 146 138 131 132 129 131 132 134 134 132 137 131 128 127 129 122 127 118 112 102 101 97 91 86 80 66 70 68 63 63
117 107 102 101 151 105 108 125 105 106 233 145 147 129 131 141 141 135 125 126 115 122 134 134 134 139 134 128 127 117 125 127 128 125 127 119 117 122 125 126 120 113 104 97 93 82 75 72 67 67 66 67
105 105 85 90 81 107 98 90 39 89 186 140 109 115 120 130 146 142 123 127 127 125 125 133 126 136 145 136 128 124 123 126 127 124 124 125 121 98 99 121 115 118 112 97 90 80 71 72 64 66 64 60
139 136 142 136 114 82 70 87 113 88 203 209 120 116 126 137 146 146 124 144 133 132 132 132 136 133 143 141 131 126 132 139 142 138 132 132 124 115 96 84 112 125 110 91 85 84 74 61 62 61 58 61
166 161 151 158 169 141 141 155 118 98 190 102 113 130 147 138 140 115 118 139 143 137 127 132 135 143 141 152 143 140 145 146 141 140 138 131 130 126 120 117 124 133 120 114 82 77 73 68 55 60 57 63
176 175 179 168 166 133 150 157 149 138 190 136 91 124 139 161 144 132 121 133 156 132 134 137 144 153 150 147 143 139 140 140 141 140 140 135 116 98 130 137 164 167 115 97 139 135 114 80 74 68 56 62
178 163 110 127 143 145 132 29 35 58 94 109 100 81 126 214 170 137 132 158 161 138 145 144 140 156 159 146 134 132 142 144 147 154 151 153 137 131 20 106 21 185 328 127 111 99 106 146 124 167 99 89
124 84 90 67 92 73 62 139 106 95 103 80 94 123 145 191 170 124 130 156 154 144 147 146 155 152 157 155 159 152 149 154 150 155 153 147 143 135 134 147 158 352 266 161 142 150 167 156 147 144 208 158
129 115 93 98 81 86 93 77 95 117 95 103 144 141 166 174 136 108 123 143 163 154 152 151 155 161 163 157 164 154 143 157 163 162 158 153 148 158 146 147 125 104 245 203 338 138 129 105 206 218 136 133
146 146 137 142 151 163 159 152 166 178 173 176 185 183 153 126 106 102 112 133 155 138 154 155 167 166 161 158 156 164 152 140 137 158 160 170 159 157 160 142 129 126 15 12 40 338 358 207 174 153 161 152
159 150 169 176 180 177 175 171 193 174 175 177 149 108 136 122 103 99 110 120 148 136 144 145 164 169 172 158 147 142 141 153 165 165 163 158 164 151 128 142 138 155 153 136 65 37 53 65 16 132 137 195